Time,TemperatureF,DewpointF,PressureIn,WindDirection,WindDirectionDegrees,WindSpeedMPH,WindSpeedGustMPH,Humidity,HourlyPrecipIn,Conditions,Clouds,dailyrainin,SoftwareType,DateUTC
2013-03-25 00:02:00,51.0,-99.9,30.02,South,184,16.0,20.0,-999,-99.99,,,-99.99,,2013-03-25 07:02:00,
2013-03-25 00:13:00,51.0,-99.9,30.02,South,184,16.0,20.0,-999,-99.99,,,-99.99,,2013-03-25 07:13:00,
2013-03-25 00:22:00,51.0,-99.9,30.01,South,182,16.0,19.0,-999,-99.99,,,-99.99,,2013-03-25 07:22:00,
2013-03-25 00:32:00,51.0,-99.9,30.01,South,182,14.0,18.0,-999,-99.99,,,-99.99,,2013-03-25 07:32:00,
2013-03-25 00:42:00,51.0,-99.9,30.01,South,182,14.0,18.0,-999,-99.99,,,-99.99,,2013-03-25 07:42:00,
2013-03-25 00:53:00,50.0,-99.9,30.01,South,188,17.0,19.0,-999,-99.99,,,-99.99,,2013-03-25 07:53:00,
2013-03-25 01:03:00,50.0,-99.9,30.01,South,188,17.0,19.0,-999,-99.99,,,-99.99,,2013-03-25 08:03:00,
2013-03-25 01:12:00,50.0,-99.9,30.01,South,188,17.0,19.0,-999,-99.99,,,-99.99,,2013-03-25 08:12:00,
2013-03-25 01:23:00,50.0,-99.9,30.01,South,183,16.0,19.0,-999,-99.99,,,-99.99,,2013-03-25 08:23:00,
2013-03-25 01:32:00,50.0,-99.9,30.01,South,182,13.0,17.0,-999,-99.99,,,-99.99,,2013-03-25 08:32:00,
2013-03-25 01:43:00,50.0,-99.9,30.01,South,182,13.0,17.0,-999,-99.99,,,-99.99,,2013-03-25 08:43:00,
2013-03-25 01:52:00,50.0,-99.9,30.01,South,182,13.0,16.0,-999,-99.99,,,-99.99,,2013-03-25 08:52:00,
2013-03-25 02:02:00,50.0,-99.9,30.01,South,180,12.0,16.0,-999,-99.99,,,-99.99,,2013-03-25 09:02:00,
2013-03-25 02:13:00,50.0,-99.9,30.01,South,180,12.0,16.0,-999,-99.99,,,-99.99,,2013-03-25 09:13:00,
2013-03-25 02:22:00,50.0,-99.9,30.01,South,172,12.0,15.0,-999,-99.99,,,-99.99,,2013-03-25 09:22:00,
2013-03-25 02:33:00,50.0,-99.9,30.01,South,174,12.0,16.0,-999,-99.99,,,-99.99,,2013-03-25 09:33:00,
2013-03-25 02:43:00,50.0,-99.9,30.01,South,177,12.0,17.0,-999,-99.99,,,-99.99,,2013-03-25 09:43:00,
2013-03-25 02:53:00,50.0,-99.9,30.01,South,170,13.0,16.0,-999,-99.99,,,-99.99,,2013-03-25 09:53:00,
2013-03-25 03:03:00,50.0,-99.9,30.01,South,170,13.0,16.0,-999,-99.99,,,-99.99,,2013-03-25 10:03:00,
2013-03-25 03:12:00,50.0,-99.9,30.01,South,170,13.0,16.0,-999,-99.99,,,-99.99,,2013-03-25 10:12:00,
2013-03-25 03:23:00,50.0,-99.9,30.01,South,173,12.0,16.0,-999,-99.99,,,-99.99,,2013-03-25 10:23:00,
2013-03-25 03:33:00,50.0,-99.9,30.00,South,172,11.0,17.0,-999,-99.99,,,-99.99,,2013-03-25 10:33:00,
2013-03-25 03:43:00,50.0,-99.9,30.01,South,173,12.0,15.0,-999,-99.99,,,-99.99,,2013-03-25 10:43:00,
2013-03-25 03:54:00,50.0,-99.9,30.01,South,177,11.0,15.0,-999,-99.99,,,-99.99,,2013-03-25 10:54:00,
2013-03-25 04:03:00,50.0,-99.9,30.00,South,184,14.0,17.0,-999,-99.99,,,-99.99,,2013-03-25 11:03:00,
2013-03-25 04:12:00,50.0,-99.9,30.00,South,176,13.0,17.0,-999,-99.99,,,-99.99,,2013-03-25 11:12:00,
2013-03-25 04:23:00,50.0,-99.9,30.00,South,181,13.0,17.0,-999,-99.99,,,-99.99,,2013-03-25 11:23:00,
2013-03-25 04:33:00,50.0,-99.9,30.00,South,177,12.0,16.0,-999,-99.99,,,-99.99,,2013-03-25 11:33:00,
2013-03-25 04:43:00,50.0,-99.9,29.99,SSE,167,10.0,14.0,-999,-99.99,,,-99.99,,2013-03-25 11:43:00,
2013-03-25 04:53:00,50.0,-99.9,30.00,South,184,13.0,17.0,-999,-99.99,,,-99.99,,2013-03-25 11:53:00,
2013-03-25 05:03:00,50.0,-99.9,30.00,South,177,11.0,16.0,-999,-99.99,,,-99.99,,2013-03-25 12:03:00,
2013-03-25 05:13:00,50.0,-99.9,30.00,South,173,11.0,16.0,-999,-99.99,,,-99.99,,2013-03-25 12:13:00,
2013-03-25 05:23:00,50.0,-99.9,30.00,South,174,9.0,15.0,-999,-99.99,,,-99.99,,2013-03-25 12:23:00,
2013-03-25 05:33:00,49.0,-99.9,30.00,South,170,11.0,14.0,-999,-99.99,,,-99.99,,2013-03-25 12:33:00,
2013-03-25 05:43:00,49.0,-99.9,30.00,South,170,11.0,14.0,-999,-99.99,,,-99.99,,2013-03-25 12:43:00,
2013-03-25 05:54:00,49.0,-99.9,30.00,South,176,11.0,14.0,-999,-99.99,,,-99.99,,2013-03-25 12:54:00,
2013-03-25 06:03:00,49.0,-99.9,30.01,South,172,8.0,12.0,-999,-99.99,,,-99.99,,2013-03-25 13:03:00,
2013-03-25 06:13:00,49.0,-99.9,30.01,South,177,9.0,13.0,-999,-99.99,,,-99.99,,2013-03-25 13:13:00,
2013-03-25 06:23:00,49.0,-99.9,30.01,South,173,10.0,12.0,-999,-99.99,,,-99.99,,2013-03-25 13:23:00,
2013-03-25 06:32:00,49.0,-99.9,30.01,South,171,8.0,10.0,-999,-99.99,,,-99.99,,2013-03-25 13:32:00,
2013-03-25 06:43:00,49.0,-99.9,30.00,SSE,168,9.0,13.0,-999,-99.99,,,-99.99,,2013-03-25 13:43:00,
2013-03-25 06:53:00,49.0,-99.9,30.01,South,185,11.0,14.0,-999,-99.99,,,-99.99,,2013-03-25 13:53:00,
2013-03-25 07:03:00,49.0,-99.9,30.01,South,184,10.0,12.0,-999,-99.99,,,-99.99,,2013-03-25 14:03:00,
2013-03-25 07:13:00,49.0,-99.9,30.01,South,171,7.0,11.0,-999,-99.99,,,-99.99,,2013-03-25 14:13:00,
2013-03-25 07:23:00,49.0,-99.9,30.01,South,171,7.0,11.0,-999,-99.99,,,-99.99,,2013-03-25 14:23:00,
2013-03-25 07:33:00,49.0,-99.9,30.01,SSE,167,10.0,13.0,-999,-99.99,,,-99.99,,2013-03-25 14:33:00,
2013-03-25 07:43:00,49.0,-99.9,30.01,SSE,167,10.0,13.0,-999,-99.99,,,-99.99,,2013-03-25 14:43:00,
2013-03-25 07:53:00,49.0,-99.9,30.01,South,182,12.0,14.0,-999,-99.99,,,-99.99,,2013-03-25 14:53:00,
2013-03-25 08:03:00,49.0,-99.9,30.01,South,182,13.0,16.0,-999,-99.99,,,-99.99,,2013-03-25 15:03:00,
2013-03-25 08:13:00,49.0,-99.9,30.01,South,181,13.0,15.0,-999,-99.99,,,-99.99,,2013-03-25 15:13:00,
2013-03-25 08:23:00,49.0,-99.9,30.01,South,190,12.0,13.0,-999,-99.99,,,-99.99,,2013-03-25 15:23:00,
2013-03-25 08:33:00,49.0,-99.9,30.01,South,184,12.0,14.0,-999,-99.99,,,-99.99,,2013-03-25 15:33:00,
2013-03-25 08:43:00,49.0,-99.9,30.01,South,184,12.0,14.0,-999,-99.99,,,-99.99,,2013-03-25 15:43:00,
2013-03-25 08:54:00,49.0,-99.9,30.02,South,187,11.0,15.0,-999,-99.99,,,-99.99,,2013-03-25 15:54:00,
2013-03-25 09:03:00,49.0,-99.9,30.03,SSW,207,9.0,15.0,-999,-99.99,,,-99.99,,2013-03-25 16:03:00,
2013-03-25 09:13:00,49.0,-99.9,30.03,SSW,207,9.0,15.0,-999,-99.99,,,-99.99,,2013-03-25 16:13:00,
2013-03-25 09:33:00,49.0,-99.9,30.02,SSW,200,10.0,15.0,-999,-99.99,,,-99.99,,2013-03-25 16:33:00,
2013-03-25 09:44:00,49.0,-99.9,30.03,SSW,208,11.0,15.0,-999,-99.99,,,-99.99,,2013-03-25 16:44:00,
2013-03-25 09:53:00,49.0,-99.9,30.03,SSW,210,10.0,14.0,-999,-99.99,,,-99.99,,2013-03-25 16:53:00,
2013-03-25 10:03:00,49.0,-99.9,30.02,South,190,12.0,14.0,-999,-99.99,,,-99.99,,2013-03-25 17:03:00,
2013-03-25 10:13:00,49.0,-99.9,30.02,South,190,12.0,14.0,-999,-99.99,,,-99.99,,2013-03-25 17:13:00,
2013-03-25 10:24:00,49.0,-99.9,30.02,South,190,12.0,14.0,-999,-99.99,,,-99.99,,2013-03-25 17:24:00,
2013-03-25 10:33:00,49.0,-99.9,30.02,South,190,12.0,14.0,-999,-99.99,,,-99.99,,2013-03-25 17:33:00,
2013-03-25 10:43:00,50.0,-99.9,30.03,SSW,210,11.0,15.0,-999,-99.99,,,-99.99,,2013-03-25 17:43:00,
2013-03-25 10:53:00,50.0,-99.9,30.04,SW,215,11.0,17.0,-999,-99.99,,,-99.99,,2013-03-25 17:53:00,
2013-03-25 11:04:00,50.0,-99.9,30.04,SW,215,11.0,17.0,-999,-99.99,,,-99.99,,2013-03-25 18:04:00,
2013-03-25 11:13:00,49.0,-99.9,30.04,South,187,16.0,19.0,-999,-99.99,,,-99.99,,2013-03-25 18:13:00,
2013-03-25 11:23:00,50.0,-99.9,30.04,SSW,198,12.0,17.0,-999,-99.99,,,-99.99,,2013-03-25 18:23:00,
2013-03-25 11:33:00,50.0,-99.9,30.04,SSW,195,11.0,14.0,-999,-99.99,,,-99.99,,2013-03-25 18:33:00,
2013-03-25 11:43:00,50.0,-99.9,30.04,SSW,195,11.0,14.0,-999,-99.99,,,-99.99,,2013-03-25 18:43:00,
2013-03-25 11:53:00,50.0,-99.9,30.03,SSW,196,12.0,16.0,-999,-99.99,,,-99.99,,2013-03-25 18:53:00,
2013-03-25 12:03:00,50.0,-99.9,30.04,SSW,196,12.0,15.0,-999,-99.99,,,-99.99,,2013-03-25 19:03:00,
2013-03-25 12:13:00,50.0,-99.9,30.04,SSW,196,12.0,15.0,-999,-99.99,,,-99.99,,2013-03-25 19:13:00,
2013-03-25 12:23:00,51.0,-99.9,30.03,SSW,204,9.0,14.0,-999,-99.99,,,-99.99,,2013-03-25 19:23:00,
2013-03-25 12:33:00,51.0,-99.9,30.03,SSW,208,10.0,16.0,-999,-99.99,,,-99.99,,2013-03-25 19:33:00,
2013-03-25 12:43:00,51.0,-99.9,30.04,SSW,208,10.0,16.0,-999,-99.99,,,-99.99,,2013-03-25 19:43:00,
2013-03-25 12:53:00,52.0,-99.9,30.03,SSW,210,8.0,12.0,-999,-99.99,,,-99.99,,2013-03-25 19:53:00,
2013-03-25 13:02:00,52.0,-99.9,30.03,SSW,210,8.0,12.0,-999,-99.99,,,-99.99,,2013-03-25 20:02:00,
2013-03-25 13:12:00,53.0,-99.9,30.03,SSW,203,8.0,11.0,-999,-99.99,,,-99.99,,2013-03-25 20:12:00,
2013-03-25 13:22:00,53.0,-99.9,30.03,SW,221,7.0,11.0,-999,-99.99,,,-99.99,,2013-03-25 20:22:00,
2013-03-25 13:32:00,54.0,-99.9,30.03,SSW,209,6.0,9.0,-999,-99.99,,,-99.99,,2013-03-25 20:32:00,
2013-03-25 13:43:00,54.0,-99.9,30.03,SSW,198,7.0,9.0,-999,-99.99,,,-99.99,,2013-03-25 20:43:00,
2013-03-25 13:52:00,54.0,-99.9,30.03,SSW,198,7.0,9.0,-999,-99.99,,,-99.99,,2013-03-25 20:52:00,
2013-03-25 14:03:00,54.0,-99.9,30.02,SW,214,8.0,13.0,-999,-99.99,,,-99.99,,2013-03-25 21:03:00,
2013-03-25 14:13:00,54.0,-99.9,30.02,SW,214,8.0,13.0,-999,-99.99,,,-99.99,,2013-03-25 21:13:00,
2013-03-25 14:22:00,54.0,-99.9,30.02,SW,214,8.0,13.0,-999,-99.99,,,-99.99,,2013-03-25 21:22:00,
2013-03-25 14:33:00,53.0,-99.9,30.01,SW,219,10.0,15.0,-999,-99.99,,,-99.99,,2013-03-25 21:33:00,
2013-03-25 14:43:00,53.0,-99.9,30.01,SW,219,10.0,15.0,-999,-99.99,,,-99.99,,2013-03-25 21:43:00,
2013-03-25 14:52:00,53.0,-99.9,30.01,SW,219,10.0,15.0,-999,-99.99,,,-99.99,,2013-03-25 21:52:00,
2013-03-25 15:04:00,53.0,-99.9,30.01,SW,219,10.0,15.0,-999,-99.99,,,-99.99,,2013-03-25 22:04:00,
2013-03-25 15:33:00,54.0,-99.9,29.99,SW,223,12.0,14.0,-999,-99.99,,,-99.99,,2013-03-25 22:33:00,
2013-03-25 15:43:00,55.0,-99.9,29.99,SW,228,9.0,11.0,-999,-99.99,,,-99.99,,2013-03-25 22:43:00,
2013-03-25 15:53:00,55.0,-99.9,29.99,SW,228,9.0,11.0,-999,-99.99,,,-99.99,,2013-03-25 22:53:00,
2013-03-25 16:03:00,55.0,-99.9,29.98,SW,231,10.0,14.0,-999,-99.99,,,-99.99,,2013-03-25 23:03:00,
2013-03-25 16:12:00,54.0,-99.9,29.98,SW,231,11.0,14.0,-999,-99.99,,,-99.99,,2013-03-25 23:12:00,
2013-03-25 16:23:00,55.0,-99.9,29.98,SW,229,10.0,13.0,-999,-99.99,,,-99.99,,2013-03-25 23:23:00,
2013-03-25 16:33:00,55.0,-99.9,29.98,SW,226,7.0,10.0,-999,-99.99,,,-99.99,,2013-03-25 23:33:00,
2013-03-25 16:43:00,55.0,-99.9,29.98,SW,226,7.0,10.0,-999,-99.99,,,-99.99,,2013-03-25 23:43:00,
2013-03-25 16:53:00,55.0,-99.9,29.98,SW,226,7.0,10.0,-999,-99.99,,,-99.99,,2013-03-25 23:53:00,
2013-03-25 17:02:00,55.0,-99.9,29.98,SW,226,7.0,10.0,-999,-99.99,,,-99.99,,2013-03-26 00:02:00,
2013-03-25 17:23:00,55.0,-99.9,29.97,SW,224,8.0,10.0,-999,-99.99,,,-99.99,,2013-03-26 00:23:00,
2013-03-25 17:33:00,55.0,-99.9,29.97,SW,224,8.0,10.0,-999,-99.99,,,-99.99,,2013-03-26 00:33:00,
2013-03-25 17:43:00,55.0,-99.9,29.96,SW,231,6.0,9.0,-999,-99.99,,,-99.99,,2013-03-26 00:43:00,
2013-03-25 17:52:00,55.0,-99.9,29.96,SW,229,8.0,9.0,-999,-99.99,,,-99.99,,2013-03-26 00:52:00,
2013-03-25 18:02:00,55.0,-99.9,29.96,SW,229,8.0,9.0,-999,-99.99,,,-99.99,,2013-03-26 01:02:00,
2013-03-25 18:12:00,55.0,-99.9,29.96,SW,229,8.0,9.0,-999,-99.99,,,-99.99,,2013-03-26 01:12:00,
2013-03-25 18:23:00,55.0,-99.9,29.96,SW,229,8.0,9.0,-999,-99.99,,,-99.99,,2013-03-26 01:23:00,
2013-03-25 18:33:00,54.0,-99.9,29.96,WSW,241,10.0,12.0,-999,-99.99,,,-99.99,,2013-03-26 01:33:00,
2013-03-25 18:42:00,54.0,-99.9,29.96,WSW,241,10.0,12.0,-999,-99.99,,,-99.99,,2013-03-26 01:42:00,
2013-03-25 18:53:00,54.0,-99.9,29.97,SW,229,9.0,14.0,-999,-99.99,,,-99.99,,2013-03-26 01:53:00,
2013-03-25 19:02:00,53.0,-99.9,29.97,SW,230,13.0,15.0,-999,-99.99,,,-99.99,,2013-03-26 02:02:00,
2013-03-25 19:12:00,53.0,-99.9,29.97,WSW,253,11.0,15.0,-999,-99.99,,,-99.99,,2013-03-26 02:12:00,
2013-03-25 19:23:00,53.0,-99.9,29.97,WSW,253,11.0,15.0,-999,-99.99,,,-99.99,,2013-03-26 02:23:00,
2013-03-25 19:32:00,53.0,-99.9,29.98,NW,310,11.0,15.0,-999,-99.99,,,-99.99,,2013-03-26 02:32:00,
2013-03-25 19:43:00,53.0,-99.9,29.98,NW,310,11.0,15.0,-999,-99.99,,,-99.99,,2013-03-26 02:43:00,
2013-03-25 19:53:00,53.0,-99.9,29.98,NW,310,11.0,15.0,-999,-99.99,,,-99.99,,2013-03-26 02:53:00,
2013-03-25 20:02:00,53.0,-99.9,29.98,West,273,11.0,15.0,-999,-99.99,,,-99.99,,2013-03-26 03:02:00,
2013-03-25 20:12:00,53.0,-99.9,29.98,WNW,301,11.0,15.0,-999,-99.99,,,-99.99,,2013-03-26 03:12:00,
2013-03-25 20:22:00,53.0,-99.9,29.99,WNW,286,11.0,16.0,-999,-99.99,,,-99.99,,2013-03-26 03:22:00,
2013-03-25 20:34:00,53.0,-99.9,29.99,WNW,286,11.0,16.0,-999,-99.99,,,-99.99,,2013-03-26 03:34:00,
2013-03-25 20:43:00,52.0,-99.9,29.98,WNW,297,11.0,15.0,-999,-99.99,,,-99.99,,2013-03-26 03:43:00,
2013-03-25 20:53:00,52.0,-99.9,29.96,NNW,329,9.0,13.0,-999,-99.99,,,-99.99,,2013-03-26 03:53:00,
2013-03-25 21:03:00,52.0,-99.9,29.96,NNW,329,9.0,13.0,-999,-99.99,,,-99.99,,2013-03-26 04:03:00,
2013-03-25 21:13:00,52.0,-99.9,29.96,NW,325,6.0,11.0,-999,-99.99,,,-99.99,,2013-03-26 04:13:00,
2013-03-25 21:23:00,52.0,-99.9,29.94,North,6,9.0,14.0,-999,-99.99,,,-99.99,,2013-03-26 04:23:00,
2013-03-25 21:33:00,52.0,-99.9,29.99,WNW,285,7.0,11.0,-999,-99.99,,,-99.99,,2013-03-26 04:33:00,
2013-03-25 21:43:00,52.0,-99.9,29.99,West,259,7.0,10.0,-999,-99.99,,,-99.99,,2013-03-26 04:43:00,
2013-03-25 21:53:00,52.0,-99.9,29.99,SW,224,15.0,19.0,-999,-99.99,,,-99.99,,2013-03-26 04:53:00,
2013-03-25 22:02:00,52.0,-99.9,29.99,SW,225,13.0,17.0,-999,-99.99,,,-99.99,,2013-03-26 05:02:00,
2013-03-25 22:12:00,52.0,-99.9,29.99,SW,225,13.0,17.0,-999,-99.99,,,-99.99,,2013-03-26 05:12:00,
2013-03-25 22:23:00,52.0,-99.9,29.99,SW,233,12.0,17.0,-999,-99.99,,,-99.99,,2013-03-26 05:23:00,
2013-03-25 22:33:00,51.0,-99.9,30.00,SW,232,13.0,17.0,-999,-99.99,,,-99.99,,2013-03-26 05:33:00,
2013-03-25 22:43:00,51.0,-99.9,30.00,SW,232,13.0,17.0,-999,-99.99,,,-99.99,,2013-03-26 05:43:00,
2013-03-25 22:52:00,51.0,-99.9,30.00,WSW,238,11.0,17.0,-999,-99.99,,,-99.99,,2013-03-26 05:52:00,
2013-03-25 23:02:00,51.0,-99.9,30.00,WSW,238,11.0,17.0,-999,-99.99,,,-99.99,,2013-03-26 06:02:00,
2013-03-25 23:12:00,52.0,-99.9,30.01,West,260,10.0,16.0,-999,-99.99,,,-99.99,,2013-03-26 06:12:00,
2013-03-25 23:22:00,51.0,-99.9,30.02,WSW,252,9.0,14.0,-999,-99.99,,,-99.99,,2013-03-26 06:22:00,
2013-03-25 23:32:00,51.0,-99.9,30.01,WSW,251,6.0,11.0,-999,-99.99,,,-99.99,,2013-03-26 06:32:00,
2013-03-25 23:43:00,51.0,-99.9,30.01,SW,230,6.0,8.0,-999,-99.99,,,-99.99,,2013-03-26 06:43:00,
2013-03-25 23:53:00,51.0,-99.9,30.01,SW,226,6.0,9.0,-999,-99.99,,,-99.99,,2013-03-26 06:53:00,